#�ϑ�����,���ϕ���,���ϕ���,�ő啗��,�ő啗����������,�ő�u�ԕ���,�ő�u�ԕ�����������
#(�N����),(m/s)   ,(16����),(m/s)   ,(16����)        ,(m/s)       ,(16����)            
2015/7/16 0:01,1.8,15,1.8,15,4.5,15
2015/7/16 0:02,2,15,2,15,3.2,14
2015/7/16 0:03,2.2,15,2.2,15,3.7,13
2015/7/16 0:04,2.3,15,2.3,15,3.8,16
2015/7/16 0:05,2.3,15,2.3,15,2.9,14
2015/7/16 0:06,2.4,15,2.4,15,3.2,16
2015/7/16 0:07,2.4,15,2.4,15,2.7,16
2015/7/16 0:08,2.4,15,2.4,15,2.7,14
2015/7/16 0:09,2.1,15,2.3,15,2.2,15
2015/7/16 0:10,1.8,15,2.1,15,1,15
2015/7/16 0:11,1.7,15,1.8,15,2.5,16
2015/7/16 0:12,1.6,15,1.7,15,2.1,16
2015/7/16 0:13,1.5,15,1.6,15,2.4,16
2015/7/16 0:14,1.4,14,1.4,15,2.2,14
2015/7/16 0:15,1.3,14,1.3,15,1.6,6
2015/7/16 0:16,1.3,14,1.3,15,2.5,8
2015/7/16 0:17,1.4,13,1.4,15,2.7,8
2015/7/16 0:18,1.3,11,1.4,15,2.6,8
2015/7/16 0:19,1.4,10,1.4,15,2.2,8
2015/7/16 0:20,1.5,10,1.5,15,2.2,10
2015/7/16 0:21,1.5,9,1.5,15,2,9
2015/7/16 0:22,1.4,9,1.5,15,1.4,9
2015/7/16 0:23,1.4,8,1.4,10,1,8
2015/7/16 0:24,1.3,8,1.4,10,1.3,6
2015/7/16 0:25,1.3,8,1.3,10,0.9,8
2015/7/16 0:26,1.1,9,1.2,10,1,9
2015/7/16 0:27,1,9,1.1,10,1.6,10
2015/7/16 0:28,1,9,1,10,2.2,10
2015/7/16 0:29,0.9,9,1,10,2.4,9
2015/7/16 0:30,0.9,9,0.9,10,1.6,8
2015/7/16 0:31,0.8,9,0.9,9,1.3,10
2015/7/16 0:32,0.8,9,0.8,9,0.4,10
2015/7/16 0:33,0.7,9,0.8,8,0.3,7
2015/7/16 0:34,0.7,9,0.7,8,1.3,16
2015/7/16 0:35,0.8,9,0.8,9,1.8,16
2015/7/16 0:36,0.9,10,0.9,9,2,15
2015/7/16 0:37,0.9,11,0.9,9,2.4,15
2015/7/16 0:38,1,14,1,9,2.9,14
2015/7/16 0:39,1.1,15,1.1,14,2.6,15
2015/7/16 0:40,1.1,15,1.1,14,1.6,16
2015/7/16 0:41,1.1,15,1.1,14,1,16
2015/7/16 0:42,1.2,15,1.2,15,1.6,13
2015/7/16 0:43,1.3,15,1.3,15,1.4,12
2015/7/16 0:44,1.3,14,1.3,15,0.8,15
2015/7/16 0:45,1.1,14,1.3,15,0.4,8
2015/7/16 0:46,1,13,1.1,15,0.9,11
2015/7/16 0:47,0.9,13,1,15,1.5,10
2015/7/16 0:48,0.9,12,0.9,15,1.6,11
2015/7/16 0:49,0.8,11,0.8,15,2,10
2015/7/16 0:50,0.8,11,0.8,15,1.9,11
2015/7/16 0:51,0.9,10,0.9,15,2,11
2015/7/16 0:52,1,10,1,15,1.8,11
2015/7/16 0:53,1,10,1,15,1.9,12
2015/7/16 0:54,1.1,10,1.1,14,1.6,11
2015/7/16 0:55,1.3,11,1.3,11,2.4,12
2015/7/16 0:56,1.5,11,1.5,11,2,11
2015/7/16 0:57,1.4,11,1.4,11,1.3,11
2015/7/16 0:58,1.3,11,1.4,11,1,12
2015/7/16 0:59,1.3,11,1.3,11,1.4,8
2015/7/16 1:00,1.2,11,1.3,11,1.8,7
2015/7/16 1:01,1.2,10,1.2,11,1.9,7
2015/7/16 1:02,1.2,10,1.2,11,1.4,8
2015/7/16 1:03,1.1,10,1.2,11,1.3,8
2015/7/16 1:04,1.1,9,1.1,11,1.6,8
2015/7/16 1:05,1,9,1.1,11,1.3,8
2015/7/16 1:06,0.9,8,1,11,0.5,7
2015/7/16 1:07,0.8,8,0.8,11,1.5,7
2015/7/16 1:08,0.9,8,0.9,11,1.4,7
2015/7/16 1:09,0.8,8,0.9,11,0.8,9
2015/7/16 1:10,0.7,8,0.8,11,0.3,12
2015/7/16 1:11,0.6,8,0.7,10,0.8,7
2015/7/16 1:12,0.6,7,0.6,10,1.6,5
2015/7/16 1:13,0.6,7,0.6,10,1.5,5
2015/7/16 1:14,0.6,6,0.6,9,1.1,3
2015/7/16 1:15,0.6,5,0.6,9,1.9,3
2015/7/16 1:16,0.6,5,0.6,8,0.9,2
2015/7/16 1:17,0.7,4,0.7,8,1.8,16
2015/7/16 1:18,0.7,3,0.7,8,2.1,16
2015/7/16 1:19,0.8,2,0.8,8,2.2,16
2015/7/16 1:20,1,2,1,2,2.4,1
2015/7/16 1:21,1.1,2,1.1,2,2.2,16
2015/7/16 1:22,1.2,1,1.2,2,2.2,16
2015/7/16 1:23,1.2,1,1.2,2,1.5,16
2015/7/16 1:24,1.1,1,1.2,2,0.8,3
2015/7/16 1:25,1.1,1,1.1,2,0.5,5
2015/7/16 1:26,1,1,1.1,2,0.3,1
2015/7/16 1:27,1,1,1.1,2,2,15
2015/7/16 1:28,1.1,1,1.1,2,1.8,16
2015/7/16 1:29,1,1,1.1,2,1.6,16
2015/7/16 1:30,0.9,1,1,2,1.4,15
2015/7/16 1:31,0.9,16,0.9,2,0.9,15
2015/7/16 1:32,0.8,16,0.9,1,1.3,11
2015/7/16 1:33,0.8,16,0.8,1,1.4,9
2015/7/16 1:34,0.9,15,0.9,1,1.6,10
2015/7/16 1:35,1,14,1,1,2.6,10
2015/7/16 1:36,1.1,13,1.1,1,1.5,9
2015/7/16 1:37,1.1,12,1.1,1,2,9
2015/7/16 1:38,1.1,11,1.1,1,1.9,9
2015/7/16 1:39,1.1,10,1.1,13,1.5,10
2015/7/16 1:40,1,10,1.1,13,0.6,9
2015/7/16 1:41,1,10,1,13,0.9,14
2015/7/16 1:42,0.9,10,1,13,0.5,14
2015/7/16 1:43,0.9,11,0.9,13,1.3,13
2015/7/16 1:44,0.9,11,0.9,13,1.4,13
2015/7/16 1:45,0.8,11,0.9,13,1.4,11
2015/7/16 1:46,0.9,11,0.9,13,1.5,12
2015/7/16 1:47,0.8,12,0.9,12,1.1,12
2015/7/16 1:48,0.7,12,0.8,11,0.8,11
2015/7/16 1:49,0.6,12,0.7,10,1.5,7
2015/7/16 1:50,0.7,12,0.7,10,1.8,7
2015/7/16 1:51,0.8,11,0.8,10,1.8,8
2015/7/16 1:52,1,11,1,11,2.2,8
2015/7/16 1:53,1,10,1,11,2.2,9
2015/7/16 1:54,1.1,10,1.1,10,2.2,9
2015/7/16 1:55,1.2,9,1.2,9,2.2,9
2015/7/16 1:56,1.1,9,1.2,9,1.9,10
2015/7/16 1:57,1.1,9,1.1,9,1.3,10
2015/7/16 1:58,1.2,9,1.2,9,1.6,8
2015/7/16 1:59,1.2,8,1.2,9,1.3,8
2015/7/16 2:00,1.1,9,1.2,9,0.6,12
2015/7/16 2:01,1,9,1.1,9,1.1,12
2015/7/16 2:02,0.9,10,1,9,1,13
2015/7/16 2:03,0.9,11,0.9,9,1.3,14
2015/7/16 2:04,0.9,12,0.9,9,1.4,13
2015/7/16 2:05,0.8,12,0.9,9,1.5,13
2015/7/16 2:06,0.9,13,0.9,9,2.2,13
2015/7/16 2:07,1,13,1,9,2.2,13
2015/7/16 2:08,1,14,1,9,1.8,13
2015/7/16 2:09,1.1,13,1.1,8,1.6,13
2015/7/16 2:10,1.3,13,1.3,13,2.5,12
2015/7/16 2:11,1.3,13,1.3,13,1.8,12
2015/7/16 2:12,1.4,13,1.4,13,1.5,12
2015/7/16 2:13,1.3,13,1.4,13,1.3,15
2015/7/16 2:14,1.3,13,1.3,13,1.3,15
2015/7/16 2:15,1.2,13,1.3,13,0.5,1
2015/7/16 2:16,1,14,1.2,13,0.1,5
2015/7/16 2:17,0.8,13,1,13,0.3,11
2015/7/16 2:18,0.7,13,0.8,13,1.1,7
2015/7/16 2:19,0.7,13,0.7,13,1.1,6
2015/7/16 2:20,0.5,14,0.7,13,0.6,4
2015/7/16 2:21,0.4,16,0.5,13,0.6,4
2015/7/16 2:22,0.4,1,0.4,13,1,16
2015/7/16 2:23,0.4,4,0.4,13,0.9,6
2015/7/16 2:24,0.4,5,0.4,13,1.5,7
2015/7/16 2:25,0.5,7,0.5,13,2,9
2015/7/16 2:26,0.6,6,0.6,14,1.3,9
2015/7/16 2:27,0.7,6,0.7,13,1.8,3
2015/7/16 2:28,0.7,6,0.7,13,2.1,10
2015/7/16 2:29,0.7,6,0.7,13,2.2,10
2015/7/16 2:30,0.8,7,0.8,6,2.2,9
2015/7/16 2:31,0.8,8,0.8,6,1,15
2015/7/16 2:32,0.8,7,0.8,6,1.1,15
2015/7/16 2:33,0.9,6,0.9,6,1.3,4
2015/7/16 2:34,0.8,3,0.9,6,1.6,2
2015/7/16 2:35,0.9,2,0.9,6,2.9,2
2015/7/16 2:36,1.1,3,1.1,3,3.9,3
2015/7/16 2:37,1.2,2,1.2,2,2.4,4
2015/7/16 2:38,1.2,1,1.2,2,2.2,15
2015/7/16 2:39,1.2,1,1.2,2,2.2,1
2015/7/16 2:40,1.2,2,1.2,2,1.3,6
2015/7/16 2:41,1.3,2,1.3,2,2,4
2015/7/16 2:42,1.3,3,1.3,2,2.2,2
2015/7/16 2:43,1.5,4,1.5,3,3,6
2015/7/16 2:44,1.6,4,1.6,4,2,6
2015/7/16 2:45,1.5,5,1.5,4,2.2,8
2015/7/16 2:46,1.3,6,1.5,4,1.8,11
2015/7/16 2:47,1.3,8,1.3,4,1.8,10
2015/7/16 2:48,1.3,8,1.3,4,2,11
2015/7/16 2:49,1.3,8,1.3,4,1.5,12
2015/7/16 2:50,1.3,9,1.3,4,1.4,13
2015/7/16 2:51,1.3,10,1.3,4,2.1,11
2015/7/16 2:52,1.3,11,1.4,4,2,12
2015/7/16 2:53,1.3,12,1.3,4,2.6,14
2015/7/16 2:54,1.4,12,1.4,5,3.5,15
2015/7/16 2:55,1.6,12,1.6,12,3.7,13
2015/7/16 2:56,1.7,13,1.7,12,3.3,13
2015/7/16 2:57,1.8,13,1.8,13,3.6,15
2015/7/16 2:58,1.9,13,1.9,13,4.5,14
2015/7/16 2:59,2.1,14,2.1,14,5,16
2015/7/16 3:00,2.2,14,2.2,14,4.4,15
2015/7/16 3:01,2.2,14,2.2,14,3,2
2015/7/16 3:02,2.2,15,2.2,14,1.8,3
2015/7/16 3:03,2.1,15,2.2,14,3.8,2
2015/7/16 3:04,2.1,16,2.1,14,3.2,2
2015/7/16 3:05,2,1,2.1,14,3,6
2015/7/16 3:06,2,2,2,14,2.9,5
2015/7/16 3:07,1.9,3,2,14,3,3
2015/7/16 3:08,1.8,3,1.9,14,2.4,7
2015/7/16 3:09,1.6,4,1.8,14,2.6,6
2015/7/16 3:10,1.7,5,1.7,14,3.8,4
2015/7/16 3:11,1.8,5,1.8,14,3.3,5
2015/7/16 3:12,1.8,5,1.8,15,2.5,5
2015/7/16 3:13,1.7,5,1.8,15,1.4,6
2015/7/16 3:14,1.5,6,1.7,16,0.6,3
2015/7/16 3:15,1.4,6,1.5,1,0.6,9
2015/7/16 3:16,1.2,6,1.3,2,0.3,8
2015/7/16 3:17,1.1,6,1.2,3,1.9,12
2015/7/16 3:18,1.1,6,1.2,4,2,14
2015/7/16 3:19,1.1,6,1.1,5,2.2,13
2015/7/16 3:20,1.1,11,1.1,5,3.2,15
2015/7/16 3:21,1.1,14,1.1,5,3.5,15
2015/7/16 3:22,1.1,15,1.1,5,3.2,3
2015/7/16 3:23,1.4,15,1.4,5,5.6,3
2015/7/16 3:24,1.5,16,1.5,6,3.7,3
2015/7/16 3:25,1.6,16,1.6,16,3,15
2015/7/16 3:26,1.9,16,1.9,16,5,16
2015/7/16 3:27,2,16,2,16,3.3,16
2015/7/16 3:28,2.2,1,2.2,1,6.9,3
2015/7/16 3:29,2.3,1,2.3,1,5.6,16
2015/7/16 3:30,2.4,1,2.4,1,5.1,1
2015/7/16 3:31,2.4,1,2.4,1,4.4,16
2015/7/16 3:32,2.5,1,2.5,1,6.1,16
2015/7/16 3:33,2.6,1,2.6,1,5.5,16
2015/7/16 3:34,3.1,1,3.1,1,8.5,16
2015/7/16 3:35,3.2,1,3.2,1,5.5,16
2015/7/16 3:36,3.2,1,3.2,1,5.6,16
2015/7/16 3:37,3.4,1,3.4,1,6,16
2015/7/16 3:38,3.1,1,3.4,1,2.5,16
2015/7/16 3:39,3.1,1,3.1,1,5.8,16
2015/7/16 3:40,3.1,1,3.2,1,4.3,16
2015/7/16 3:41,3.3,1,3.3,1,6,16
2015/7/16 3:42,3.3,1,3.4,1,4.5,1
2015/7/16 3:43,3.1,1,3.3,1,4.4,16
2015/7/16 3:44,2.8,1,3,1,4.5,2
2015/7/16 3:45,2.7,1,2.8,1,5.1,2
2015/7/16 3:46,2.9,1,2.9,1,6.9,16
2015/7/16 3:47,2.9,1,2.9,16,7.7,2
2015/7/16 3:48,3.4,1,3.4,1,9.2,16
2015/7/16 3:49,3.5,1,3.6,1,7.7,16
2015/7/16 3:50,3.6,1,3.6,1,5.4,3
2015/7/16 3:51,3.4,1,3.6,1,3.8,16
2015/7/16 3:52,3.3,1,3.4,1,3.7,2
2015/7/16 3:53,3.3,1,3.3,1,3.9,2
2015/7/16 3:54,3.4,1,3.4,1,6.1,1
2015/7/16 3:55,3.3,1,3.4,1,5.7,15
2015/7/16 3:56,3.2,1,3.3,1,6.2,16
2015/7/16 3:57,3.1,1,3.3,1,5.5,1
2015/7/16 3:58,2.9,1,3.1,1,4.5,16
2015/7/16 3:59,2.7,1,2.8,1,4.5,2
2015/7/16 4:00,2.7,1,2.7,1,5.4,2
2015/7/16 4:01,2.7,1,2.7,1,4.3,4
2015/7/16 4:02,2.7,2,2.7,1,4.3,5
2015/7/16 4:03,2.8,2,2.8,1,4.9,4
2015/7/16 4:04,2.6,2,2.8,1,3,4
2015/7/16 4:05,2.5,2,2.6,1,2.7,3
2015/7/16 4:06,2.6,2,2.6,1,6.5,2
2015/7/16 4:07,2.5,3,2.6,1,4.1,16
2015/7/16 4:08,2.6,3,2.6,1,7,2
2015/7/16 4:09,2.5,3,2.6,2,5,2
2015/7/16 4:10,2.5,3,2.5,2,7,15
2015/7/16 4:11,2.7,2,2.7,2,7.8,16
2015/7/16 4:12,3,2,3,2,7.6,15
2015/7/16 4:13,3.1,1,3.1,2,6.7,16
2015/7/16 4:14,3.2,1,3.2,1,3.7,16
2015/7/16 4:15,3.2,1,3.2,1,6.2,2
2015/7/16 4:16,3.3,1,3.3,1,9.7,16
2015/7/16 4:17,3.5,1,3.5,1,8.1,16
2015/7/16 4:18,3.5,1,3.5,1,6,16
2015/7/16 4:19,3.6,1,3.6,1,6.3,16
2015/7/16 4:20,3.5,1,3.5,1,4.2,5
2015/7/16 4:21,3.2,1,3.4,1,3,5
2015/7/16 4:22,2.8,1,3.2,1,1.6,15
2015/7/16 4:23,2.5,1,2.8,1,2,15
2015/7/16 4:24,2.3,1,2.5,1,0.9,15
2015/7/16 4:25,2.2,1,2.3,1,1.3,8
2015/7/16 4:26,1.8,1,2.1,1,1.6,1
2015/7/16 4:27,1.7,1,1.8,1,4.2,3
2015/7/16 4:28,1.6,2,1.7,1,4.2,4
2015/7/16 4:29,1.4,3,1.6,1,2.6,3
2015/7/16 4:30,1.3,3,1.4,1,2.5,5
2015/7/16 4:31,1.4,3,1.4,1,3.7,5
2015/7/16 4:32,1.5,3,1.5,1,3.9,6
2015/7/16 4:33,1.6,4,1.6,1,4.1,5
2015/7/16 4:34,1.8,4,1.8,1,4.1,4
2015/7/16 4:35,2.1,4,2.1,1,4.7,5
2015/7/16 4:36,2.3,4,2.3,4,5.4,1
2015/7/16 4:37,2.3,4,2.4,4,4.3,3
2015/7/16 4:38,2.2,4,2.3,4,1.9,3
2015/7/16 4:39,2.2,4,2.2,4,2.7,3
2015/7/16 4:40,2.1,3,2.2,4,2.4,16
2015/7/16 4:41,2.1,3,2.2,4,2.9,15
2015/7/16 4:42,2.1,2,2.1,4,4.1,3
2015/7/16 4:43,2.3,2,2.3,4,4.7,1
2015/7/16 4:44,2.2,2,2.3,4,4.1,16
2015/7/16 4:45,2,2,2.2,4,2.4,2
2015/7/16 4:46,1.8,2,2,4,3.1,1
2015/7/16 4:47,1.8,1,1.8,4,2.2,3
2015/7/16 4:48,1.8,1,1.8,2,3.2,3
2015/7/16 4:49,1.9,1,1.9,2,4.2,3
2015/7/16 4:50,2,2,2,2,4.3,3
2015/7/16 4:51,2.1,2,2.1,2,5.5,2
2015/7/16 4:52,2.2,2,2.2,2,4.3,15
2015/7/16 4:53,2.1,2,2.1,2,3.1,2
2015/7/16 4:54,2,2,2,2,4.1,1
2015/7/16 4:55,2.1,2,2.1,2,2.7,1
2015/7/16 4:56,2.2,2,2.2,2,4.1,16
2015/7/16 4:57,2.3,1,2.3,1,5.8,16
2015/7/16 4:58,2.6,1,2.6,1,6.1,2
2015/7/16 4:59,2.8,1,2.8,1,9.3,16
2015/7/16 5:00,2.9,1,2.9,1,6.4,2
2015/7/16 5:01,2.8,1,2.9,1,7.1,1
2015/7/16 5:02,3,1,3,1,6.1,3
2015/7/16 5:03,2.9,1,3,1,3.9,15
2015/7/16 5:04,3,16,3,1,6.4,16
2015/7/16 5:05,3.2,16,3.2,16,6.2,1
2015/7/16 5:06,3.4,16,3.4,16,6.1,16
2015/7/16 5:07,3.1,16,3.3,16,3.6,1
2015/7/16 5:08,2.9,16,3.1,16,2.4,2
2015/7/16 5:09,2.6,16,2.9,16,2.9,2
2015/7/16 5:10,2.7,16,2.7,16,5,15
2015/7/16 5:11,2.7,16,2.8,16,6.1,16
2015/7/16 5:12,2.6,16,2.7,16,3.7,1
2015/7/16 5:13,2.7,16,2.7,16,3.5,1
2015/7/16 5:14,2.7,16,2.7,16,4.9,1
2015/7/16 5:15,2.5,16,2.7,16,3.2,15
2015/7/16 5:16,2.4,16,2.5,16,4.2,16
2015/7/16 5:17,2.6,16,2.6,16,6.4,16
2015/7/16 5:18,2.8,16,2.8,16,5.8,15
2015/7/16 5:19,2.8,16,2.8,16,4.2,16
2015/7/16 5:20,2.6,16,2.8,16,1.6,16
2015/7/16 5:21,2.3,1,2.5,16,1.1,2
2015/7/16 5:22,2.1,16,2.2,16,2.6,16
2015/7/16 5:23,2,16,2.1,16,1.9,15
2015/7/16 5:24,1.9,16,2,16,3,1
2015/7/16 5:25,2,16,2,16,4.4,1
2015/7/16 5:26,2,16,2,16,5.4,1
2015/7/16 5:27,1.8,16,2,16,2.6,1
2015/7/16 5:28,1.7,1,1.8,16,3.8,3
2015/7/16 5:29,1.7,1,1.7,16,2.7,5
2015/7/16 5:30,1.8,2,1.8,16,4.3,4
2015/7/16 5:31,2,2,2,1,4.1,3
2015/7/16 5:32,2,2,2,16,2,6
2015/7/16 5:33,2,3,2,16,1.8,4
2015/7/16 5:34,2,3,2,16,2.7,5
2015/7/16 5:35,1.8,4,1.9,16,2,6
2015/7/16 5:36,1.5,4,1.8,16,0.9,16
2015/7/16 5:37,1.5,4,1.5,1,3.1,5
2015/7/16 5:38,1.5,5,1.5,1,3,5
2015/7/16 5:39,1.5,5,1.5,1,2.7,5
2015/7/16 5:40,1.5,5,1.5,1,3.1,6
2015/7/16 5:41,1.3,5,1.4,2,1.4,6
2015/7/16 5:42,1.3,6,1.3,2,3,7
2015/7/16 5:43,1.4,6,1.4,3,2.6,7
2015/7/16 5:44,1.4,6,1.4,3,2.4,7
2015/7/16 5:45,1.5,6,1.5,4,2.7,7
2015/7/16 5:46,1.6,6,1.6,6,2.1,7
2015/7/16 5:47,1.5,7,1.6,6,1.8,7
2015/7/16 5:48,1.5,7,1.5,6,2,7
2015/7/16 5:49,1.4,7,1.5,6,1.9,7
2015/7/16 5:50,1.3,7,1.4,6,1.4,8
2015/7/16 5:51,1.3,7,1.3,6,1.3,8
2015/7/16 5:52,1.3,8,1.4,6,1.6,7
2015/7/16 5:53,1.3,8,1.3,6,2,7
2015/7/16 5:54,1.2,8,1.3,6,2.5,9
2015/7/16 5:55,1.2,8,1.2,6,3.1,8
2015/7/16 5:56,1.2,8,1.2,6,2.2,8
2015/7/16 5:57,1.1,8,1.2,7,1.5,8
2015/7/16 5:58,1,8,1.1,7,0.6,10
2015/7/16 5:59,1,8,1,7,1.1,6
2015/7/16 6:00,0.9,8,1,8,1.3,7
2015/7/16 6:01,1,8,1,8,2.1,7
2015/7/16 6:02,0.9,8,1,8,1.4,5
2015/7/16 6:03,1,8,1,8,4.1,9
2015/7/16 6:04,1,8,1,8,3,9
2015/7/16 6:05,0.9,8,1,8,2.7,9
2015/7/16 6:06,0.9,8,0.9,8,1.8,9
2015/7/16 6:07,1,8,1,8,2.7,6
2015/7/16 6:08,1.1,8,1.1,8,2,7
2015/7/16 6:09,1.1,8,1.1,8,1.5,8
2015/7/16 6:10,1.2,8,1.2,8,3.5,5
2015/7/16 6:11,1.3,8,1.3,8,4.4,5
2015/7/16 6:12,1.5,7,1.5,7,3.6,6
2015/7/16 6:13,1.5,7,1.6,7,2,5
2015/7/16 6:14,1.5,6,1.5,7,2.4,4
2015/7/16 6:15,1.6,6,1.6,7,2.7,6
2015/7/16 6:16,1.7,6,1.7,6,2,6
2015/7/16 6:17,1.5,6,1.6,6,1.5,11
2015/7/16 6:18,1.5,6,1.5,6,1.1,7
2015/7/16 6:19,1.5,6,1.5,6,1.3,10
2015/7/16 6:20,1.4,6,1.5,6,1.1,5
2015/7/16 6:21,1.1,6,1.3,6,1.3,8
2015/7/16 6:22,0.9,6,1.1,6,1.3,7
2015/7/16 6:23,0.9,7,0.9,6,0.6,8
2015/7/16 6:24,0.8,7,0.8,6,2.5,5
2015/7/16 6:25,0.7,7,0.8,6,2.2,8
2015/7/16 6:26,0.7,7,0.7,6,1.5,8
2015/7/16 6:27,0.7,6,0.7,6,2.5,4
2015/7/16 6:28,0.8,6,0.8,6,3.6,16
2015/7/16 6:29,0.8,6,0.8,6,2,16
2015/7/16 6:30,0.8,6,0.8,6,0.8,9
2015/7/16 6:31,0.8,4,0.8,6,1.3,16
2015/7/16 6:32,0.9,4,0.9,6,2.1,4
2015/7/16 6:33,1,2,1,3,2.7,15
2015/7/16 6:34,1,2,1,3,1.9,14
2015/7/16 6:35,1,16,1,3,2.4,14
2015/7/16 6:36,0.9,16,1,3,0.9,14
2015/7/16 6:37,1,16,1,3,2.9,8
2015/7/16 6:38,1,2,1,3,3,5
2015/7/16 6:39,1.1,4,1.1,3,2.4,7
2015/7/16 6:40,1.2,5,1.2,4,2,8
2015/7/16 6:41,1.2,7,1.2,4,2.4,6
2015/7/16 6:42,1.2,8,1.2,4,1.5,9
2015/7/16 6:43,1.1,9,1.2,4,1.1,11
2015/7/16 6:44,1.1,9,1.2,4,1.6,13
2015/7/16 6:45,1.3,9,1.3,9,3.8,11
2015/7/16 6:46,1.5,9,1.5,9,3.6,11
2015/7/16 6:47,1.5,9,1.5,9,5.8,9
2015/7/16 6:48,1.4,10,1.5,9,2,9
2015/7/16 6:49,1.4,10,1.4,9,1.5,9
2015/7/16 6:50,1.4,10,1.4,9,2.7,7
2015/7/16 6:51,1.6,10,1.6,10,5.4,8
2015/7/16 6:52,1.8,10,1.8,10,5.4,8
2015/7/16 6:53,2,9,2,9,4.9,8
2015/7/16 6:54,2.1,9,2.1,9,2.7,8
2015/7/16 6:55,2,8,2.1,9,4.8,8
2015/7/16 6:56,2,8,2,9,4.1,8
2015/7/16 6:57,2,8,2,9,3.5,8
2015/7/16 6:58,1.9,8,2,9,2,9
2015/7/16 6:59,1.8,8,1.9,9,0.9,1
2015/7/16 7:00,1.9,8,1.9,9,2.6,4
2015/7/16 7:01,1.7,7,1.9,9,2.6,3
2015/7/16 7:02,1.4,6,1.7,9,0.6,3
2015/7/16 7:03,1.1,5,1.4,9,0.8,14
2015/7/16 7:04,1.1,2,1.1,9,2.5,12
2015/7/16 7:05,1.1,15,1.2,8,3.2,11
2015/7/16 7:06,1.1,14,1.1,8,3.8,11
2015/7/16 7:07,1.1,14,1.2,8,3.2,11
2015/7/16 7:08,1.3,14,1.3,8,3.9,11
2015/7/16 7:09,1.7,12,1.7,8,5.6,11
2015/7/16 7:10,1.8,12,1.8,8,4.8,11
2015/7/16 7:11,1.9,12,1.9,12,3.8,12
2015/7/16 7:12,2,11,2,11,3.6,9
2015/7/16 7:13,2.3,11,2.3,11,5.8,10
2015/7/16 7:14,2.5,11,2.5,11,5.8,10
2015/7/16 7:15,2.7,11,2.7,11,5,12
2015/7/16 7:16,2.8,11,2.8,11,5.8,10
2015/7/16 7:17,3.1,11,3.1,11,6.5,10
2015/7/16 7:18,3.2,10,3.2,10,6.7,10
2015/7/16 7:19,3,10,3.2,10,4.2,9
2015/7/16 7:20,3.1,10,3.1,10,8.1,9
2015/7/16 7:21,3.2,10,3.2,10,5.4,8
2015/7/16 7:22,3.4,10,3.4,10,5.6,9
2015/7/16 7:23,3.4,10,3.4,10,6.1,8
2015/7/16 7:24,3.3,10,3.4,10,4.4,11
2015/7/16 7:25,3.2,10,3.3,10,5,10
2015/7/16 7:26,3.2,10,3.2,10,6.4,10
2015/7/16 7:27,3.2,9,3.2,10,7,8
2015/7/16 7:28,3.1,9,3.2,10,6.4,9
2015/7/16 7:29,3.2,10,3.2,10,5.1,10
2015/7/16 7:30,3,10,3.2,10,4.9,8
2015/7/16 7:31,2.9,9,3,10,3.6,9
2015/7/16 7:32,2.8,9,2.9,10,5.6,10
2015/7/16 7:33,2.8,9,2.8,10,6.4,10
2015/7/16 7:34,2.8,9,2.8,10,5.2,10
2015/7/16 7:35,2.8,10,2.8,10,4.5,11
2015/7/16 7:36,2.8,10,2.9,10,3.9,12
2015/7/16 7:37,2.7,10,2.8,9,3.9,13
2015/7/16 7:38,2.8,11,2.8,9,4.1,13
2015/7/16 7:39,2.8,11,2.9,10,4.3,13
2015/7/16 7:40,2.9,11,2.9,10,3.9,13
2015/7/16 7:41,3,12,3,12,3,13
2015/7/16 7:42,3.1,12,3.1,12,4.2,12
2015/7/16 7:43,3,12,3.1,12,4.1,12
2015/7/16 7:44,3.1,12,3.1,12,5.8,11
2015/7/16 7:45,3.3,12,3.3,12,6.1,11
2015/7/16 7:46,3.5,12,3.5,12,6.2,11
2015/7/16 7:47,3.6,12,3.6,12,5.2,11
2015/7/16 7:48,3.5,12,3.6,12,4.2,11
2015/7/16 7:49,3.5,12,3.5,12,4.7,11
2015/7/16 7:50,3.7,11,3.7,11,5.4,11
2015/7/16 7:51,3.9,11,3.9,11,5.8,10
2015/7/16 7:52,4,11,4,11,5.4,10
2015/7/16 7:53,4,11,4,11,4.8,10
2015/7/16 7:54,3.9,11,4,11,5.2,10
2015/7/16 7:55,3.7,11,3.8,11,4.1,11
2015/7/16 7:56,3.4,11,3.6,11,3.5,11
2015/7/16 7:57,3.3,11,3.4,11,3.8,11
2015/7/16 7:58,3.4,11,3.4,11,4.4,9
2015/7/16 7:59,3.4,11,3.4,11,5.4,11
2015/7/16 8:00,3.3,11,3.4,11,5.7,10
2015/7/16 8:01,3.3,11,3.4,11,5.8,11
2015/7/16 8:02,3.3,11,3.3,11,5.4,10
2015/7/16 8:03,3.3,11,3.3,11,4.2,11
2015/7/16 8:04,3.5,11,3.5,11,5.2,11
2015/7/16 8:05,3.6,11,3.6,11,4.9,11
2015/7/16 8:06,3.8,11,3.8,11,5.1,11
2015/7/16 8:07,3.9,11,3.9,11,4.8,11
2015/7/16 8:08,3.9,11,3.9,11,4.3,11
2015/7/16 8:09,3.7,11,3.8,11,3.1,11
2015/7/16 8:10,3.6,11,3.7,11,3.3,11
2015/7/16 8:11,3.4,11,3.6,11,4.1,12
2015/7/16 8:12,3.4,11,3.4,11,4.4,12
2015/7/16 8:13,3.4,11,3.4,11,4.7,11
2015/7/16 8:14,3.4,11,3.4,11,5.6,10
2015/7/16 8:15,3.4,11,3.4,11,5.8,10
2015/7/16 8:16,3.3,11,3.4,11,4.1,12
2015/7/16 8:17,3.3,11,3.3,11,4.5,12
2015/7/16 8:18,3.3,11,3.3,11,4.4,12
2015/7/16 8:19,3.4,12,3.4,11,3.9,12
2015/7/16 8:20,3.4,12,3.4,11,3.8,13
2015/7/16 8:21,3.3,12,3.4,11,3.3,12
2015/7/16 8:22,3.2,12,3.3,11,3.1,12
2015/7/16 8:23,3.1,12,3.2,11,3.2,14
2015/7/16 8:24,3,12,3.1,11,4.3,14
2015/7/16 8:25,2.8,12,3,11,2.7,13
2015/7/16 8:26,2.7,12,2.8,12,3.8,12
2015/7/16 8:27,2.6,12,2.7,12,4.3,13
2015/7/16 8:28,2.5,12,2.6,12,3.5,11
2015/7/16 8:29,2.5,12,2.5,12,3.8,12
2015/7/16 8:30,2.5,12,2.5,12,4.2,11
2015/7/16 8:31,2.6,12,2.6,12,3.9,11
2015/7/16 8:32,2.5,12,2.6,12,3.6,10
2015/7/16 8:33,2.5,11,2.5,12,3.9,9
2015/7/16 8:34,2.6,11,2.6,12,4.7,9
2015/7/16 8:35,2.7,11,2.7,12,5.2,9
2015/7/16 8:36,2.8,10,2.8,10,5.7,9
2015/7/16 8:37,2.8,10,2.9,10,4.4,9
2015/7/16 8:38,2.9,10,2.9,10,4.7,7
2015/7/16 8:39,2.8,9,2.9,10,4.2,9
2015/7/16 8:40,2.9,9,2.9,10,7,8
2015/7/16 8:41,2.9,9,3,9,5.2,7
2015/7/16 8:42,2.8,8,2.9,9,2.4,7
2015/7/16 8:43,2.7,8,2.8,9,3,6
2015/7/16 8:44,2.5,8,2.7,9,1.9,6
2015/7/16 8:45,2.3,8,2.4,9,2.2,9
2015/7/16 8:46,2.1,8,2.3,9,2.9,10
2015/7/16 8:47,2,8,2.1,9,3.1,12
2015/7/16 8:48,2.1,9,2.1,9,4.5,11
2015/7/16 8:49,2.3,9,2.3,9,4.7,13
2015/7/16 8:50,2.2,10,2.3,9,4.3,14
2015/7/16 8:51,2.3,11,2.3,9,4.7,12
2015/7/16 8:52,2.5,11,2.5,8,4.8,12
2015/7/16 8:53,2.6,11,2.6,8,4.2,11
2015/7/16 8:54,2.8,12,2.8,12,4.2,9
2015/7/16 8:55,3,11,3,11,5.2,9
2015/7/16 8:56,3.1,11,3.1,11,6.9,10
2015/7/16 8:57,3.2,11,3.2,11,5.8,9
2015/7/16 8:58,3.1,11,3.2,11,6.9,9
2015/7/16 8:59,3.1,11,3.1,11,5.2,9
2015/7/16 9:00,3,10,3.1,11,4.8,9
2015/7/16 9:01,2.9,10,3,11,5.4,9
2015/7/16 9:02,2.9,10,2.9,11,6.1,10
2015/7/16 9:03,2.8,10,2.9,11,2.6,8
2015/7/16 9:04,2.7,10,2.8,11,3.7,10
2015/7/16 9:05,2.5,10,2.7,11,3.2,8
2015/7/16 9:06,2.3,10,2.5,11,3.6,9
2015/7/16 9:07,2.4,10,2.4,11,5.8,9
2015/7/16 9:08,2.5,10,2.5,11,6.8,9
2015/7/16 9:09,2.6,9,2.6,11,6.4,10
2015/7/16 9:10,2.5,10,2.6,10,4.7,10
2015/7/16 9:11,2.3,10,2.4,10,3.2,8
2015/7/16 9:12,2.2,10,2.3,10,3.9,8
2015/7/16 9:13,2.3,10,2.3,10,4.7,9
2015/7/16 9:14,2.3,10,2.3,10,3.7,9
2015/7/16 9:15,2.4,9,2.4,10,2.7,8
2015/7/16 9:16,2.5,9,2.5,10,5,10
2015/7/16 9:17,2.3,9,2.5,10,4.5,8
2015/7/16 9:18,2.1,10,2.3,10,3.6,10
2015/7/16 9:19,1.9,9,2.1,9,2.4,10
2015/7/16 9:20,1.9,9,1.9,9,2.4,13
2015/7/16 9:21,2,10,2,9,4.2,10
2015/7/16 9:22,2.2,9,2.2,9,4.1,9
2015/7/16 9:23,2.2,10,2.2,9,6.1,11
2015/7/16 9:24,2.5,10,2.5,9,6.4,10
2015/7/16 9:25,2.6,10,2.6,10,5.6,10
2015/7/16 9:26,2.8,10,2.8,10,5.6,11
2015/7/16 9:27,3,10,3,10,6.3,10
2015/7/16 9:28,3,10,3,10,4.1,10
2015/7/16 9:29,3,10,3,10,3.2,7
2015/7/16 9:30,3.2,10,3.2,10,5.2,9
2015/7/16 9:31,3.3,10,3.3,10,7.7,9
2015/7/16 9:32,3.3,10,3.3,10,5.1,6
2015/7/16 9:33,3.3,10,3.3,10,4.7,9
2015/7/16 9:34,3.1,10,3.3,10,4.4,10
2015/7/16 9:35,3,10,3.1,10,4.8,9
2015/7/16 9:36,3,9,3,10,6.1,8
2015/7/16 9:37,3,9,3,10,5.8,9
2015/7/16 9:38,3.1,9,3.1,10,4.5,9
2015/7/16 9:39,3.2,9,3.2,10,3.8,8
2015/7/16 9:40,3,9,3.1,10,4.3,11
2015/7/16 9:41,3,9,3.1,10,7,7
2015/7/16 9:42,3,9,3,10,6.3,8
2015/7/16 9:43,2.8,9,3,10,3.1,9
2015/7/16 9:44,2.7,9,2.8,9,3,9
2015/7/16 9:45,2.4,9,2.6,9,2.4,12
2015/7/16 9:46,2.2,10,2.4,9,1.5,14
2015/7/16 9:47,1.8,10,2.1,9,1.1,10
2015/7/16 9:48,1.7,10,1.8,9,2.9,4
2015/7/16 9:49,1.6,9,1.7,9,4.5,4
2015/7/16 9:50,1.8,3,1.8,9,5.4,2
2015/7/16 9:51,1.5,16,1.8,9,3.2,1
2015/7/16 9:52,1.5,1,1.5,9,2.7,3
2015/7/16 9:53,1.4,2,1.5,9,3,7
2015/7/16 9:54,1.4,2,1.4,9,2.6,7
2015/7/16 9:55,1.5,2,1.5,10,2.4,1
2015/7/16 9:56,1.5,2,1.5,10,2.7,1
2015/7/16 9:57,1.6,1,1.6,10,2.7,11
2015/7/16 9:58,1.7,16,1.7,3,4.4,14
2015/7/16 9:59,1.9,16,1.9,16,8.7,14
2015/7/16 10:00,1.9,16,2,16,5.6,1
2015/7/16 10:01,2.1,16,2.1,16,8.7,2
2015/7/16 10:02,2.3,16,2.3,16,8.1,2
2015/7/16 10:03,2.5,16,2.5,16,8.3,16
2015/7/16 10:04,2.7,16,2.7,16,7.7,3
2015/7/16 10:05,3,16,3,16,8.4,2
2015/7/16 10:06,3.2,16,3.2,16,7.4,2
2015/7/16 10:07,3.7,16,3.7,16,14,16
2015/7/16 10:08,3.9,1,3.9,1,10.7,2
2015/7/16 10:09,4,1,4,1,8.1,15
2015/7/16 10:10,4.2,1,4.2,1,9.5,2
2015/7/16 10:11,4.2,1,4.3,1,8.2,16
2015/7/16 10:12,4.3,16,4.3,1,9.2,16
2015/7/16 10:13,4.3,16,4.3,1,5.7,5
2015/7/16 10:14,4.6,16,4.6,16,10.2,16
2015/7/16 10:15,5,1,5,16,13.8,1
2015/7/16 10:16,5,1,5,16,8.2,2
2015/7/16 10:17,4.8,1,5,16,11.6,2
2015/7/16 10:18,5.3,1,5.3,1,12.6,15
2015/7/16 10:19,5.5,16,5.5,16,15,1
2015/7/16 10:20,6.1,16,6.1,16,15.1,16
2015/7/16 10:21,6.8,16,6.8,16,17.5,1
2015/7/16 10:22,7.5,16,7.5,16,17.8,1
2015/7/16 10:23,8.3,16,8.3,16,16.9,16
2015/7/16 10:24,8.8,16,8.8,16,18.4,16
2015/7/16 10:25,8.9,16,8.9,16,16.2,16
2015/7/16 10:26,9.5,16,9.5,16,14.2,16
2015/7/16 10:27,10,16,10,16,14.7,16
2015/7/16 10:28,9.9,16,10.1,16,15.2,15
2015/7/16 10:29,9.7,16,10,16,12.4,15
2015/7/16 10:30,9.4,16,9.7,16,14.3,15
2015/7/16 10:31,9.4,16,9.5,16,16.2,16
2015/7/16 10:32,9.2,16,9.3,16,15,1
2015/7/16 10:33,8.9,16,9.1,16,14.9,15
2015/7/16 10:34,8.5,16,8.8,16,10.2,15
2015/7/16 10:35,8.2,16,8.5,16,12.8,15
2015/7/16 10:36,8.4,16,8.4,16,18,15
2015/7/16 10:37,8.1,16,8.4,16,12.4,1
2015/7/16 10:38,8.1,16,8.2,16,11.9,2
2015/7/16 10:39,8.2,16,8.2,16,11.9,15
2015/7/16 10:40,8.3,16,8.3,16,14.9,1
2015/7/16 10:41,8.4,16,8.6,16,16.7,16
2015/7/16 10:42,8.2,16,8.4,16,13.1,16
2015/7/16 10:43,8.1,16,8.2,16,13,16
2015/7/16 10:44,8.2,16,8.2,16,18.9,16
2015/7/16 10:45,8.4,16,8.4,16,15.2,16
2015/7/16 10:46,7.7,16,8.3,16,11.1,16
2015/7/16 10:47,7.9,16,7.9,16,11.1,16
2015/7/16 10:48,7.9,16,7.9,16,13.8,15
2015/7/16 10:49,8.1,16,8.1,16,13.9,16
2015/7/16 10:50,8,16,8.1,16,15.2,16
2015/7/16 10:51,7.8,16,8,16,11.7,15
2015/7/16 10:52,7.7,16,7.9,16,12.1,16
2015/7/16 10:53,7.5,16,7.6,16,9.1,16
2015/7/16 10:54,7,16,7.5,16,4.3,1
2015/7/16 10:55,6.6,16,6.9,16,11.1,2
2015/7/16 10:56,6.8,16,6.8,16,11.1,1
2015/7/16 10:57,6.2,16,6.7,16,6.3,16
2015/7/16 10:58,5.8,16,6.1,16,10.7,16
2015/7/16 10:59,5.3,1,5.8,16,6.9,2
2015/7/16 11:00,4.7,1,5.3,16,4.8,3
2015/7/16 11:01,4,1,4.7,16,1.9,6
2015/7/16 11:02,3.4,2,3.9,16,1.8,4
2015/7/16 11:03,3.1,2,3.4,16,3.2,4
2015/7/16 11:04,3.1,2,3.1,16,4.5,3
2015/7/16 11:05,2.7,2,3.1,16,6,16
2015/7/16 11:06,2.4,2,2.6,16,4.9,1
2015/7/16 11:07,2.5,2,2.5,16,5.2,2
2015/7/16 11:08,2.3,2,2.4,16,4.7,16
2015/7/16 11:09,2.1,3,2.2,1,5,5
2015/7/16 11:10,2.2,2,2.2,1,5.1,4
2015/7/16 11:11,2.3,3,2.3,1,4.7,3
2015/7/16 11:12,2.6,2,2.6,2,6.2,4
2015/7/16 11:13,2.9,2,2.9,2,8.3,1
2015/7/16 11:14,3,3,3,2,5.5,3
2015/7/16 11:15,3.1,2,3.1,2,7.8,15
2015/7/16 11:16,3.3,2,3.3,2,8.4,16
2015/7/16 11:17,3.2,2,3.3,2,4.4,15
2015/7/16 11:18,3.4,3,3.4,3,5.7,4
2015/7/16 11:19,3.6,3,3.6,3,6.8,3
2015/7/16 11:20,3.6,3,3.6,3,5.1,4
2015/7/16 11:21,3.6,3,3.6,3,4.2,5